Weather History for Newcastle, WY

Change the Weather History Date:

Thursday, November 7, 2013

  Actual Average (KCUT) Record (KCUT)
Temperature  
Mean Temperature 35 °F 35 °F  
Max Temperature 44 °F 46 °F 71 °F (1980)
Min Temperature 26 °F 25 °F 1 °F (1991)
Degree Days  
Heating Degree Days 30 30  
Month to date heating degree days 199  
Since 1 July heating degree days 1378  
Cooling Degree Days 0 0  
Month to date cooling degree days 0  
Year to date cooling degree days 177  
Moisture  
Dew Point 28 °F    
Average Humidity 72    
Maximum Humidity 100    
Minimum Humidity 49    
Precipitation  
Precipitation 0.00 in 0.02 in 0.45 in (1970)
Month to date precipitation 0.16  
Year to date precipitation 18.12  
Sea Level Pressure  
Sea Level Pressure 30.18 in    
Wind  
Wind Speed 6 mph (SE)    
Max Wind Speed 17 mph    
Max Gust Speed 22 mph    
Visibility 10 miles    
Events      
T = Trace of Precipitation, MM = Missing Value Source: NWS Daily Summary

Daily Weather History Graph

Daily Weather History Graph

Search for Another Location

Airport:

Trip Planner

Search our weather history database for the weather conditions in past years. The results will help you decide how hot, cold, wet, or windy it might be!

Date:

Astronomy

Nov. 07, 2013 Rise Set
Actual Time 6:41 AM MST 4:39 PM MST
Civil Twilight 6:11 AM MST 5:10 PM MST
Nautical Twilight 5:36 AM MST 5:44 PM MST
Astronomical Twilight 5:03 AM MST 6:18 PM MST
Moon 10:54 AM MST (11/7) 8:52 PM MST (11/7)
Length of Visible Light 10h 58m
Length of Day
9h 57m
Waxing Crescent, 23% of the Moon is Illuminated
Nov 7
Waxing Crescent
Nov 9
First Quarter
Nov 17
Full
Nov 25
Last Quarter
Dec 2
New

Hourly Weather History & Observations

Time (MST) Temp. Windchill Dew Point Humidity Pressure Visibility Wind Dir Wind Speed Gust Speed Precip Events Conditions
12:55 AM 28.4 °F - 26.6 °F 93% 30.33 in 10.0 mi Calm Calm - N/A   Clear
1:15 AM 28.4 °F 22.2 °F 28.4 °F 100% 30.32 in 10.0 mi North 5.8 mph - N/A   Scattered Clouds
1:35 AM 30.2 °F 24.3 °F 28.4 °F 93% 30.32 in 10.0 mi North 5.8 mph - N/A   Clear
1:55 AM 28.4 °F 20.4 °F 26.6 °F 93% 30.32 in 10.0 mi North 8.1 mph - N/A   Clear
2:15 AM 28.4 °F 22.2 °F 26.6 °F 93% 30.33 in 10.0 mi North 5.8 mph - N/A   Clear
2:35 AM 26.6 °F - 23.0 °F 86% 30.33 in 10.0 mi Calm Calm - N/A   Clear
2:55 AM 26.6 °F - 23.0 °F 86% 30.33 in 10.0 mi Calm Calm - N/A   Clear
3:15 AM 26.6 °F 21.2 °F 24.8 °F 93% 30.33 in 10.0 mi SE 4.6 mph - N/A   Clear
3:35 AM 26.6 °F - 26.6 °F 100% 30.33 in 10.0 mi Calm Calm - N/A   Clear
3:55 AM 28.4 °F - 26.6 °F 93% 30.33 in 10.0 mi Calm Calm - N/A   Clear
4:15 AM 28.4 °F - 26.6 °F 93% 30.33 in 10.0 mi Calm Calm - N/A   Clear
4:35 AM 28.4 °F - 26.6 °F 93% 30.33 in 10.0 mi Calm Calm - N/A   Clear
4:55 AM 28.4 °F - 26.6 °F 93% 30.33 in 10.0 mi Calm Calm - N/A   Scattered Clouds
5:15 AM 28.4 °F - 26.6 °F 93% 30.33 in 10.0 mi Calm Calm - N/A   Scattered Clouds
5:35 AM 28.4 °F - 26.6 °F 93% 30.33 in 10.0 mi Calm Calm - N/A   Clear
5:55 AM 28.4 °F - 26.6 °F 93% 30.32 in 10.0 mi Calm Calm - N/A   Scattered Clouds
6:15 AM 28.4 °F - 26.6 °F 93% 30.33 in 10.0 mi Calm Calm - N/A   Clear
6:35 AM 28.4 °F - 26.6 °F 93% 30.32 in 10.0 mi Calm Calm - N/A   Scattered Clouds
6:55 AM 28.4 °F - 26.6 °F 93% 30.32 in 10.0 mi Calm Calm - N/A   Clear
7:15 AM 28.4 °F - 26.6 °F 93% 30.32 in 10.0 mi Calm Calm - N/A   Clear
7:35 AM 28.4 °F - 26.6 °F 93% 30.33 in 10.0 mi Calm Calm - N/A   Clear
7:55 AM 28.4 °F 24.6 °F 26.6 °F 93% 30.34 in 10.0 mi ESE 3.5 mph - N/A   Clear
8:15 AM 30.2 °F - 28.4 °F 93% 30.34 in 10.0 mi Calm Calm - N/A   Clear
8:35 AM 32.0 °F 25.6 °F 28.4 °F 87% 30.34 in 10.0 mi SE 6.9 mph - N/A   Clear
8:55 AM 32.0 °F 24.2 °F 30.2 °F 93% 30.33 in 10.0 mi SSE 9.2 mph - N/A   Scattered Clouds
9:15 AM 32.0 °F 24.8 °F 30.2 °F 93% 30.33 in 10.0 mi SSE 8.1 mph - N/A   Scattered Clouds
9:35 AM 32.0 °F 25.6 °F 30.2 °F 93% 30.32 in 10.0 mi SSE 6.9 mph - N/A   Clear
9:55 AM 33.8 °F 27.7 °F 30.2 °F 87% 30.32 in 10.0 mi SE 6.9 mph - N/A   Clear
10:15 AM 35.6 °F 30.7 °F 30.2 °F 81% 30.31 in 10.0 mi SE 5.8 mph - N/A   Clear
10:35 AM 39.2 °F 35.0 °F 30.2 °F 70% 30.30 in 10.0 mi SE 5.8 mph - N/A   Scattered Clouds
10:55 AM 41.0 °F 35.8 °F 28.4 °F 61% 30.30 in 10.0 mi SE 8.1 mph - N/A   Scattered Clouds
11:15 AM 41.0 °F 37.1 °F 28.4 °F 61% 30.29 in 10.0 mi SE 5.8 mph - N/A   Clear
11:35 AM 42.8 °F 37.5 °F 28.4 °F 57% 30.28 in 10.0 mi SSE 9.2 mph - N/A   Clear
11:55 AM 42.8 °F 38.6 °F 26.6 °F 53% 30.26 in 10.0 mi SE 6.9 mph - N/A   Clear
12:15 PM 42.8 °F 38.0 °F 26.6 °F 53% 30.24 in 10.0 mi SSE 8.1 mph - N/A   Clear
12:35 PM 42.8 °F 37.5 °F 24.8 °F 49% 30.24 in 10.0 mi SSE 9.2 mph - N/A   Clear
12:55 PM 44.6 °F 40.2 °F 26.6 °F 49% 30.23 in 10.0 mi SSE 8.1 mph - N/A   Clear
1:15 PM 44.6 °F 39.2 °F 26.6 °F 49% 30.21 in 10.0 mi SSE 10.4 mph - N/A   Clear
1:35 PM 42.8 °F 38.6 °F 26.6 °F 53% 30.20 in 10.0 mi SSE 6.9 mph - N/A   Clear
1:55 PM 44.6 °F 39.2 °F 26.6 °F 49% 30.19 in 10.0 mi SE 10.4 mph - N/A   Clear
2:15 PM 44.6 °F 39.2 °F 26.6 °F 49% 30.17 in 10.0 mi SE 10.4 mph - N/A   Clear
2:35 PM 44.6 °F 38.8 °F 26.6 °F 49% 30.16 in 10.0 mi SE 11.5 mph - N/A   Clear
2:55 PM 44.6 °F 38.8 °F 26.6 °F 49% 30.15 in 10.0 mi SE 11.5 mph 16.1 mph N/A   Clear
3:15 PM 44.6 °F 38.4 °F 26.6 °F 49% 30.15 in 10.0 mi SSE 12.7 mph - N/A   Clear
3:55 PM 41.0 °F 35.8 °F 26.6 °F 57% 30.12 in 10.0 mi SSE 8.1 mph - N/A   Clear
4:15 PM 39.2 °F 33.0 °F 28.4 °F 65% 30.10 in 10.0 mi SE 9.2 mph - N/A   Clear
4:35 PM 39.2 °F 33.0 °F 28.4 °F 65% 30.10 in 10.0 mi SE 9.2 mph - N/A   Clear
4:55 PM 37.4 °F 30.8 °F 26.6 °F 65% 30.09 in 10.0 mi ESE 9.2 mph - N/A   Clear
5:15 PM 39.2 °F 33.0 °F 26.6 °F 61% 30.07 in 10.0 mi ESE 9.2 mph - N/A   Clear
5:35 PM 41.0 °F 35.2 °F 26.6 °F 57% 30.06 in 10.0 mi ESE 9.2 mph - N/A   Clear
5:55 PM 41.0 °F 34.7 °F 26.6 °F 57% 30.04 in 10.0 mi East 10.4 mph 17.3 mph N/A   Clear
6:15 PM 42.8 °F 34.8 °F 28.4 °F 57% 30.03 in 10.0 mi East 17.3 mph 20.7 mph N/A   Clear
6:35 PM 42.8 °F 35.4 °F 28.4 °F 57% 30.02 in 10.0 mi ESE 15.0 mph - N/A   Clear
6:55 PM 42.8 °F 35.8 °F 28.4 °F 57% 30.01 in 10.0 mi ESE 13.8 mph 18.4 mph N/A   Clear
7:15 PM 42.8 °F 35.1 °F 28.4 °F 57% 30.00 in 10.0 mi ESE 16.1 mph - N/A   Clear
7:35 PM 42.8 °F 35.4 °F 28.4 °F 57% 29.98 in 10.0 mi ESE 15.0 mph 19.6 mph N/A   Clear
7:55 PM 44.6 °F 37.4 °F 28.4 °F 53% 29.98 in 10.0 mi ESE 16.1 mph - N/A   Clear
8:15 PM 44.6 °F 37.8 °F 28.4 °F 53% 29.97 in 10.0 mi ESE 15.0 mph - N/A   Clear
8:35 PM 44.6 °F 37.8 °F 30.2 °F 57% 29.95 in 10.0 mi ESE 15.0 mph 21.9 mph N/A   Clear
8:55 PM 44.6 °F 37.8 °F 30.2 °F 57% 29.94 in 10.0 mi ESE 15.0 mph 19.6 mph N/A   Clear
9:15 PM 42.8 °F 35.8 °F 30.2 °F 61% 29.93 in 10.0 mi SE 13.8 mph - N/A   Clear
9:35 PM 44.6 °F 38.8 °F 30.2 °F 57% 29.91 in 10.0 mi SE 11.5 mph - N/A   Clear
9:55 PM 44.6 °F 38.8 °F 30.2 °F 57% 29.90 in 10.0 mi ESE 11.5 mph - N/A   Clear
10:15 PM 44.6 °F 39.2 °F 30.2 °F 57% 29.89 in 10.0 mi ESE 10.4 mph 19.6 mph N/A   Clear
10:35 PM 44.6 °F 38.1 °F 30.2 °F 57% 29.87 in 10.0 mi ESE 13.8 mph 18.4 mph N/A   Clear
10:55 PM 44.6 °F 38.4 °F 30.2 °F 57% 29.86 in 10.0 mi SE 12.7 mph - N/A   Clear
11:15 PM 42.8 °F 36.2 °F 30.2 °F 61% 29.84 in 10.0 mi ESE 12.7 mph - N/A   Clear
11:35 PM 42.8 °F 35.8 °F 30.2 °F 61% 29.82 in 10.0 mi ESE 13.8 mph - N/A   Clear
11:55 PM 42.8 °F 36.2 °F 30.2 °F 61% 29.81 in 10.0 mi ESE 12.7 mph - N/A   Clear